Winona

*Note: All times are displayed in the local standard time of the station location.
**Rain - Equipment is designed to accurately record liquid precipitation; under conditions when precipitation is not in liquid form, the data displayed may not properly reflect rainfall values.

Date Max Temp
(°C)
Min Temp
(°C)
Avg Temp
(°C)
Rain (mm) Avg RH (%) Solar Rad (kJ/m2)
Fri, Feb 15, 2019 4.7 -4.0 0.8 3.2 76.6 3063.7
Thu, Feb 14, 2019 1.9 -4.0 -1.3 1.2 79.5 5697.7
Wed, Feb 13, 2019 1.8 -4.5 -2.4 0.8 79.6 4631.8
Tue, Feb 12, 2019 1.9 -4.2 -1.9 22.8 89.1 1236.7
Mon, Feb 11, 2019 -1.7 -3.8 -2.7 0.0 76.9 1818.9
Sun, Feb 10, 2019 -2.3 -9.3 -5.4 0.0 71.2 4816.9
Sat, Feb 09, 2019 -3.7 -9.7 -6.7 0.0 65.5 5746.1
DateTime Avg Temp (°C) Rain (mm) RH (%) Solar Rad (kJ/m2)
Sat, Feb 16, 2019 16:00 -1.8 0.0 58.4 692.3
Sat, Feb 16, 2019 15:00 -2.2 0.0 60.1 1031.8
Sat, Feb 16, 2019 14:00 -2.6 0.0 61.7 1273.9
Sat, Feb 16, 2019 13:00 -2.9 0.0 62.4 1344.2
Sat, Feb 16, 2019 12:00 -3.4 0.0 64.4 1186.8
Sat, Feb 16, 2019 11:00 -3.9 0.0 66.1 811.0
Sat, Feb 16, 2019 10:00 -3.9 0.0 67.5 850.2
Sat, Feb 16, 2019 09:00 -4.1 0.0 67.3 476.1
Sat, Feb 16, 2019 08:00 -4.5 0.0 70.6 70.1
Sat, Feb 16, 2019 07:00 -3.7 0.0 71.4 0.0
Sat, Feb 16, 2019 06:00 -3.0 0.0 67.7 0.0
Sat, Feb 16, 2019 05:00 -2.8 0.0 76.2 0.0
Sat, Feb 16, 2019 04:00 -3.2 0.0 78.9 0.0
Sat, Feb 16, 2019 03:00 -3.6 0.0 78.9 0.0
Sat, Feb 16, 2019 02:00 -3.6 0.0 76.6 0.0
Sat, Feb 16, 2019 01:00 -3.6 0.0 74.1 0.0
Sat, Feb 16, 2019 00:00 -3.6 0.0 72.0 0.0
Fri, Feb 15, 2019 23:00 -3.9 0.0 70.8 0.0
Fri, Feb 15, 2019 22:00 -3.9 0.0 68.7 0.0
Fri, Feb 15, 2019 21:00 -3.5 0.0 66.6 0.0
Fri, Feb 15, 2019 20:00 -2.6 0.0 66.6 0.0
Fri, Feb 15, 2019 19:00 -2.0 0.0 66.9 0.0
Fri, Feb 15, 2019 18:00 -1.6 0.0 66.4 46.8
Fri, Feb 15, 2019 17:00 -0.9 0.0 65.2 143.4
Fri, Feb 15, 2019 16:00 -0.4 0.0 70.9 233.8
Fri, Feb 15, 2019 15:00 -0.2 0.0 72.0 623.1
Fri, Feb 15, 2019 14:00 0.3 0.0 75.0 524.5
Fri, Feb 15, 2019 13:00 1.6 0.0 71.4 349.5
Fri, Feb 15, 2019 12:00 2.3 0.0 68.1 427.7
Fri, Feb 15, 2019 11:00 2.9 0.0 72.0 415.0
Fri, Feb 15, 2019 10:00 3.3 0.4 84.5 244.6
Fri, Feb 15, 2019 09:00 4.5 0.0 87.2 48.5
Fri, Feb 15, 2019 08:00 4.6 0.0 88.4 6.8
Fri, Feb 15, 2019 07:00 4.5 0.0 89.1 0.0
Fri, Feb 15, 2019 06:00 4.3 0.2 89.6 0.0
Fri, Feb 15, 2019 05:00 4.1 0.4 86.7 0.0
Fri, Feb 15, 2019 04:00 3.8 2.0 83.5 0.0
Fri, Feb 15, 2019 03:00 3.9 0.2 76.0 0.0
Fri, Feb 15, 2019 02:00 0.6 0.0 89.2 0.0
Fri, Feb 15, 2019 01:00 0.1 0.0 91.7 0.0
Fri, Feb 15, 2019 00:00 -0.1 0.0 93.1 0.0
Thu, Feb 14, 2019 23:00 -0.4 0.0 93.5 0.0
Thu, Feb 14, 2019 22:00 -0.9 0.0 94.1 0.0
Thu, Feb 14, 2019 21:00 -1.4 0.0 94.1 0.0
Thu, Feb 14, 2019 20:00 -1.8 0.0 92.7 0.0
Thu, Feb 14, 2019 19:00 -1.3 0.0 86.2 0.0
Thu, Feb 14, 2019 18:00 0.6 0.0 76.4 49.3
Thu, Feb 14, 2019 17:00 1.1 0.0 71.5 275.9


asterix Register now to access more data! asterix